Weather in Novosmolinsky

Russia / Nizhny Novgorod Oblast'     56°17′02″N   43°01′36″E
temp.,
°C
wind,
m/s
gust,
m/s
humid.,
%
clouds,
%
prec.,
mm/h
press.,
hPa
HPBL,
m
1 august, sun
sun100:00+17wsw23682 0.0 100757
03:00+15wsw257561 0.0 100997
06:00+16wsw267491 0.0 1010185
09:00+23w3554100 0.0 1011753
12:00+26wsw4644100 0.0 10111722
15:00+27wsw453799 0.0 10112065
18:00+26sw244395 0.0 1010437
21:00+23ssw41054100 0.0 1010285
2 august, mon
mon200:00+19ssw2376100 0.1 101162
03:00+18ssw227858 0.3 101129
06:00+19sw1373100 0.0 1011107
09:00+25sw2349100 0.0 1011453
12:00+30ssw363993 0.1 10101278
15:00+31sw4937100 0.1 10081412
18:00+22nnw4778100 1.1 1008123
21:00+20se4108490 1.9 1006142
3 august, tue
tue300:00+19s2783100 0.0 1006138
03:00+21ssw4157493 0.2 1005461
06:00+19sw258568 0.2 1004134
09:00+25sw585987 0.2 1006795
12:00+24wsw3665100 0.1 1006717
15:00+20w4793100 2.7 1006402
18:00+22wsw478327 1.9 1007706
21:00+18w3895100 2.3 1008316
4 august, wed
wed400:00+16w2597100 0.0 1009129
03:00+14w23966 0.0 101068
06:00+15w25935 0.0 1011159
09:00+20wnw35705 0.0 1012646
12:00+24nw354622 0.5 10121988
15:00+23wnw3647100 0.5 1013557
18:00+21nw2658100 0.0 1014323
21:00+17nw356813 0.0 101582
5 august, thu
thu500:00+14n256595 0.0 101771
03:00+13n2267100 0.0 101822
06:00+14nnw23664 0.0 101885
09:00+21nne23445 0.0 1019634
12:00+24n34305 0.0 10182388
15:00+25nne342971 0.0 10172663
18:00+22ne4641100 0.0 1017412
21:00+17ene235236 0.0 101839